Find Starlink 33572

NORAD ID: 62767 Int'l Des: 2025-015 Owner: SPXS Country: US Constellation: starlink operational
LEOCIRCULAR

当前视图

正在加载3D地球...

About Starlink 33572

Starlink 33572 (NORAD 62767) is a starlink constellation satellite (v2 mini) launched Jan 21, 2025 by SPXS of US. It operates in LEO, CIRCULAR orbit with a mass of 575.00 kg.

即将过境

Passes for default location (London). Set your location on the main map for personalized predictions.

高度历史

Loading altitude history...

两行轨道根数

1 62767U 25015K 26264.05241858 .00025124 00000-0 75186-3 0 9998
2 62767 53.1565 131.3593 0000961 83.9760 276.1352 15.34414467 94388
Epoch: Sep 21, 2026 • Age: 18 hours

当前状态

高度 463.2 km
远地点 / 近地点 N/A
速度 7.64 km/s
星下点 24.99°N, 0.45°E
发射日期 Jan 21, 2025
运行时间 1.6 years
类型 internet

技术详情

分类 Payload
质量 575.00 kg
干质量 530.00 kg
长度 0.30 m
跨度 29.00 m
形状 ? Box + pan
制造商 SPXS
平台类型 Starlink V2MO
阶段状态 In Orbit
所有者/国家 SPXS/US

Most Searched